Location: London
(51.5074°N, 0.1278°W)
Time: 07:05:20
(UTC+00:00)

TIGRISAT - Pass Details

Date: 02 October 2020
Orbit: 606 x 688 km, 97.7° (Epoch: 30 October)

Event Time Altitude Azimuth Distance (km) Brightness Sun altitude
Rises 20:18:05 0° 22° (NNE) 2,982 ? -16.7°
Reaches altitude 10° 20:20:34 10° 34° (NE) 2,080 ? -17.1°
Enters shadow 20:23:01 23° 63° (ENE) 1,395 ? -17.5°
